Terminal Aerodrome Forecast
Issued by NWS

Home | Current Version | Previous Version | Text Only | Print | Product List | Glossary On
Versions: 1 2 3 4 5 6 7 8 9 10 11 12 13 14 15 16 17 18 19 20 21 22 23 24 25 26 27 28 29 30 31 32 33 34 35 36 37 38 39 40 41 42 43 44 45 46 47 48 49 50
000
FTUS43 KLOT 260520
TAFGYY
TAF
KGYY 260520Z 2606/2706 27007KT P6SM BKN250
     FM261000 20007KT P6SM BKN090
     FM261500 19016G24KT P6SM BKN060
     FM261800 22025G40KT P6SM FEW060
     FM262300 21015G25KT P6SM SCT250
     FM270100 20008KT P6SM BKN050=

USA.gov is the U.S. government's official web portal to all federal, state and local government web resources and services.